Regional Weather Roundup
Issued by NWS

Home | Current Version | Previous Version | Graphics & Text | Print | Product List | Glossary On
Versions: 1 2 3 4 5 6 7 8 9 10 11 12 13 14 15 16 17 18 19 20 21 22 23 24 25 26 27 28 29 30 31 32 33 34 35 36 37 38 39 40 41 42 43 44 45 46 47 48 49 50
000
ASUS43 KLOT 251912
RWRIL

ILLINOIS REGIONAL WEATHER ROUNDUP
NATIONAL WEATHER SERVICE CHICAGO/ROMEOVILLE IL
100 PM CST SAT FEB 25 2017

NOTE: "FAIR" INDICATES FEW OR NO CLOUDS BELOW 12,000 FEET WITH NO
SIGNIFICANT WEATHER AND/OR OBSTRUCTIONS TO VISIBILITY.

* THESE STATIONS ARE NOT UNDER NWS QUALITY CONTROL. THEY ALSO MAY NOT
  REPORT WEATHER SUCH AS PRECIPITATION OR FOG.

ILZ001-002-007-009-015-016-024-252000-
NORTHWEST ILLINOIS

CITY           SKY/WX    TMP DP  RH WIND       PRES   REMARKS
MOLINE         CLOUDY    28  17  63 W15G24    29.99R WCI  16
STERLING*      PTSUNNY   29  19  66 W21G30    29.94S WCI  16
$$

ILZ003-004-008-010-011-017-018-252000-
NORTH CENTRAL ILLINOIS

CITY           SKY/WX    TMP DP  RH WIND       PRES   REMARKS
ROCKFORD       PTSUNNY   25  14  63 NW20G29   29.91R WCI  11
FREEPORT*      PTSUNNY   24  15  69 W16G29    29.92R WCI  10
ROCHELLE*      PTSUNNY   26  17  69 W17G25    29.91R WCI  12
DE KALB*       CLOUDY    25  17  72 W23G30    29.89R WCI  10
PERU*          PTSUNNY   26  16  66 W21G29    29.95R WCI  11
$$

ILZ005-006-012>014-019>023-252000-
NORTHEAST ILLINOIS

CITY           SKY/WX    TMP DP  RH WIND       PRES   REMARKS
CHICAGO-OHARE  FLURRIES  25  14  63 W15G24    29.86R WCI  13
CHICAGO-MIDWAY PTSUNNY   26  12  55 W22       29.88R WCI  12
AURORA         CLOUDY    27  17  66 W21       29.89R WCI  13
LANSING*       CLOUDY    27  17  66 W21G28    29.88R WCI  14
JOLIET*        CLOUDY    28  16  58 W16G23    29.91S WCI  17
WAUKEGAN       CLOUDY    21  11  65 W12G18    29.85R WCI   9
DUPAGE AIRPORT LGT SNOW  24  14  65 W21       29.88R WCI   9
KANKAKEE*      CLOUDY    29  15  55 W17G26    29.92R WCI  17
WHEELING       CLOUDY    24  11  57 NW16G22   29.88R WCI  11
MORRIS*        CLOUDY    28  17  66 W18G28    29.91R WCI  15
ROMEOVILLE*    CLOUDY    26  19  74 W16G25    29.90R WCI  13
NORTHERLY ISL    N/A     25  14  63 W9          N/A  WCI  16
$$

LMZ740>746-252000-
SOUTHERN LAKE MICHIGAN

STATION/POSITION SKY/WX   TEMP    WIND        PRES    VSBY  WAVE
                          AIR SEA DIR/SP/G                  HT/PER
                          (F)     (DEG/KT/KT) (MB)    (MI)  (FT/S)
HARRISON CRIB              25     260/ 20/ 23   N/A
BURNHAM HARBOR             25     270/ 12/ 17   N/A
CALUMET HARBOR             26     260/ 11/ 19 1011.0R
BURNS HARBOR               26     260/ 19/ 23 1011.5S
MICHIGAN CITY              24     240/ 26/ 29   N/A
$$

ILZ025>027-034>036-040-047-049-050-058-095>099-252000-
WEST-CENTRAL ILLINOIS

CITY           SKY/WX    TMP DP  RH WIND       PRES   REMARKS
QUINCY         SUNNY     33  15  47 NW15      30.06S WCI  23
GALESBURG*     CLOUDY    26  19  74 W20G28    30.00S WCI  12
MACOMB*        MOSUNNY   30  18  62 W23G29    30.05S WCI  16
JACKSONVILLE*  MOSUNNY   32  15  50 W21G32    30.05R WCI  20
PITTSFIELD*    MOSUNNY   32  16  52 W15G25    30.08R WCI  22
$$

ILZ028>032-037-038-041>044-048-051>054-059>061-252000-
CENTRAL ILLINOIS

CITY           SKY/WX    TMP DP  RH WIND       PRES   REMARKS
PONTIAC        PTSUNNY   30  17  58 W22       29.95R WCI  17
BLOOMINGTON    PTSUNNY   31  18  58 W21G26    29.96S WCI  18
DECATUR        MOSUNNY   33  14  45 W23G31    30.00R WCI  21
PEORIA         PTSUNNY   28  15  58 W17G26    30.00R WCI  16
LACON*         PTSUNNY   30  17  57 W20G26    29.97R WCI  18
LINCOLN*       SUNNY     32  14  47 W14G26    30.00S WCI  22
SPRINGFIELD    SUNNY     35  14  42 W16G29    30.02S WCI  25
TAYLORVILLE    MOSUNNY   33  14  45 W25       30.03R WCI  20
$$

ILZ033-039-045-046-055>057-062-063-252000-
EAST-CENTRAL ILLINOIS

CITY           SKY/WX    TMP DP  RH WIND       PRES   REMARKS
CHAMPAIGN      PTSUNNY   32  15  49 W22G29    29.96S WCI  19
RANTOUL*       CLOUDY    32  21  62 W22       29.95S WCI  20
MATTOON        MOSUNNY   35  15  44 W23G29    29.98S WCI  23
PARIS*         PTSUNNY   32  17  54 W21G29    29.98S WCI  20
$$

ILZ079-100>102-252000-
SOUTHWEST ILLINOIS

CITY           SKY/WX    TMP DP  RH WIND       PRES   REMARKS
ALTON          MOSUNNY   37  16  41 W20       30.06F WCI  27
BELLEVILLE     SUNNY     39  13  33 W14G23    30.06F WCI  31
CAHOKIA*       MOSUNNY   39  13  34 NW17G24   30.08F WCI  30
SPARTA*        SUNNY     37  14  38 W15G22    30.08F WCI  28
$$

ILZ064>066-069>071-074>076-080>082-084>086-088>090-092>094-252000-
SOUTH-CENTRAL ILLINOIS

CITY           SKY/WX    TMP DP  RH WIND       PRES   REMARKS
CARBONDALE     SUNNY     38  16  40 W12       30.08S WCI  30
CAIRO*         SUNNY     40  18  42 W13G18    30.10S
EFFINGHAM*     PTSUNNY   35  20  53 W17       30.04S WCI  25
MARION         MOSUNNY   43  18  36 NW14      30.08S
MT. VERNON     MOSUNNY   36  16  44 W10G21    30.06S WCI  28
CENTRALIA*     SUNNY     37  19  49 W16       30.05S WCI  27
SALEM*         MOSUNNY   36  15  43 NW20G26   30.05S WCI  25
METROPOLIS*    SUNNY     41  19  41 W6G17     30.08F
$$

ILZ067-068-072-073-078-083-087-091-252000-
SOUTHEAST ILLINOIS

CITY           SKY/WX    TMP DP  RH WIND       PRES   REMARKS
LAWRENCEVILLE  PTSUNNY   36  19  50 W17G25    30.02S WCI  26
FLORA*         PTSUNNY   37  18  47 W14       30.04S WCI  28
FAIRFIELD*     MOSUNNY   36  17  45 W9        30.04S WCI  29
HARRISBURG*    MOSUNNY   39  21  48 W18       30.07S WCI  29
ROBINSON*      PTSUNNY   32  19  58 W18G24    30.03S WCI  21
CARMI*         MOSUNNY   38  19  46 W14G24    30.04F WCI  30
$$

ABBREVIATIONS USED IN REMARKS
   TC - TEMPERATURE IN CELSIUS
  WCI - WIND CHILL INDEX
   HX - HEAT INDEX
  VSB - VISIBILITY
$$





USA.gov is the U.S. government's official web portal to all federal, state and local government web resources and services.